Location: Haindorf
(50.7160°N, 10.4120°E)
Time: 23:02:56
(UTC+00:00)

Daily predictions for brighter satellites

Satellite Brightness Start Highest point End
(mag) Time Altitude Azimuth Time Altitude Azimuth Time Altitude Azimuth
Cosmos 1892 Rocket 4.1 15:44:21 10° NNW 15:48:47 67° W 15:53:11 10° S
NOSS 2-2 (D) 3.9 15:47:53 10° S 15:50:53 30° SE 15:53:36 10° ENE
Cosmos 2369 Rocket 3.3 15:46:05 10° WSW 15:51:22 39° NW 15:56:42 10° NNE
Cosmos 1943 Rocket 4.3 15:50:01 10° NW 15:52:16 12° NNW 15:54:31 10° N
Cosmos 2084 Rocket 3.9 15:48:19 10° NW 15:52:18 39° NE 15:56:16 10° ESE
Cosmos 724 4.4 15:47:52 10° NW 15:53:54 58° NE 15:59:45 10° ESE
Thor Agena Rocket 3.7 15:49:05 10° SE 15:54:06 51° ENE 15:59:05 10° N
BlueWalker 3 2.6 15:52:16 10° WNW 15:55:49 53° SSW 15:59:21 10° SE
Cosmos 1356 Rocket 3.3 15:54:44 10° S 15:58:47 77° E 16:02:53 10° NNE
Meteor 1-28 Rocket 3.4 15:56:21 10° NNE 15:59:32 38° E 16:02:41 10° S
Cosmos 2026 Rocket 4.4 15:54:37 10° NNW 16:00:50 72° W 16:07:06 10° S
Cosmos 2278 Rocket 4.3 15:59:35 10° NW 16:01:55 12° NNW 16:04:15 10° N
Cosmos 1544 Rocket 4.0 15:59:36 10° SSE 16:03:44 42° E 16:07:56 10° NNE
Cosmos 1484 Rocket 2.5 16:00:54 10° SSE 16:04:26 85° ENE 16:07:57 10° NNW
Cosmos 1697 Rocket 4.1 16:01:24 10° SE 16:05:12 19° E 16:09:00 10° ENE
IRS-1C 4.5 16:00:18 10° SE 16:05:16 42° ENE 16:10:16 10° N
NOSS 2-2 (E) 3.7 16:02:27 10° SSW 16:05:32 33° SE 16:08:05 12° ENE
BREEZE M DEB (TANK) 4.4 15:48:49 10° W 16:06:41 72° SSW 16:11:04 10° ESE
Intercosmos 24 3.6 16:04:43 10° N 16:08:44 70° ENE 16:12:15 10° SSE
Cosmos 405 Rocket 2.2 16:05:38 10° NNW 16:08:55 85° E 16:12:08 10° SSE
Cosmos 1634 Rocket 4.0 16:03:39 10° S 16:09:50 82° E 16:16:02 10° N
Okean 1-7 Rocket 4.3 16:07:11 10° N 16:11:05 30° ENE 16:14:57 10° SE
Lacrosse 5 rocket 1.3 16:09:26 10° WSW 16:13:09 60° NNW 16:16:22 13° NE
Cosmos 1461 4.1 16:14:46 10° SSE 16:17:50 22° ESE 16:20:09 14° ENE
CENTAUR R/B 2.9 16:12:10 10° WSW 16:17:57 64° NW 16:25:21 10° NE
Meteor 1-20 Rocket 4.3 16:14:51 10° N 16:20:11 51° ENE 16:25:29 10° SSE
Cosmos 1455 Rocket 4.3 16:18:03 10° SW 16:22:10 42° WNW 16:26:21 10° N
Cosmos 1602 Rocket 3.6 16:18:34 10° N 16:22:54 53° ENE 16:27:10 10° SSE
Cosmos 2279 Rocket 4.0 16:18:15 10° S 16:24:26 75° E 16:30:41 10° NNE
IRIDIUM 103 4.4 16:22:58 10° N 16:28:06 54° E 16:33:13 10° SSE
SMAP 3.0 16:26:02 10° SSE 16:30:41 79° ENE 16:35:21 10° NNW
Cosmos 1656 3.7 16:26:37 10° SSW 16:32:13 75° ESE 16:37:55 10° NNE
UNK 3.7 16:27:52 10° NNE 16:32:26 61° ESE 16:36:56 10° S
YAOGAN 1 3.6 16:31:20 10° ESE 16:34:40 23° ENE 16:38:01 10° N
Cosmos 2228 3.7 16:31:34 10° SSW 16:35:44 55° WNW 16:39:57 10° N
NOSS 2-2 (C) 3.4 16:32:58 10° WSW 16:36:00 46° NW 16:38:06 17° NNE
Cosmos 1867 3.5 16:30:39 10° NW 16:36:07 66° NE 16:41:31 10° SE
Landsat 7 3.7 16:31:33 10° SSE 16:36:10 70° ENE 16:40:49 10° N
SAR-Lupe-4 3.5 16:32:57 10° SSE 16:36:28 63° ENE 16:40:00 10° N
Cosmos 1486 Rocket 4.0 16:32:07 10° S 16:37:15 65° ESE 16:42:24 10° NNE
NOSS 7 (H) 4.2 16:36:04 10° NW 16:38:56 51° NE 16:41:17 15° ESE
Cosmos 2297 Rocket 2.3 16:34:18 10° NNW 16:40:00 81° WSW 16:45:39 10° SSE
USA 290 2.3 16:36:46 10° NNW 16:40:02 79° WSW 16:43:18 10° SSE
USA 215 3.6 16:35:28 16° ENE 16:40:40 52° N 16:46:59 10° WNW
Cosmos 2180 Rocket 4.4 16:35:52 10° S 16:41:57 72° E 16:48:07 10° NNE
SAR-Lupe-1 4.0 16:41:56 10° SSE 16:45:31 69° ENE 16:49:07 10° N
Cosmos 1953 Rocket 4.3 16:41:46 10° N 16:45:42 30° ENE 16:49:38 10° SE
Cosmos 1782 2.8 16:42:32 10° SSW 16:46:07 71° W 16:49:43 10° N
IRIDIUM 106 4.2 16:41:14 10° N 16:46:29 75° E 16:51:42 10° S
ATLAS CENTAUR R/B 2.5 16:44:03 10° NW 16:47:02 34° WSW 16:49:55 10° S
CZ-4C R/B 2.9 16:41:16 10° NW 16:48:04 89° NE 16:56:38 10° SE
Cosmos 1607 4.2 16:43:06 10° NW 16:49:19 75° SW 16:55:35 10° SSE
Cosmos 1733 4.3 16:48:22 10° NW 16:49:33 17° W 16:50:43 10° SW
CZ-2D R/B 2.6 16:48:54 10° SSE 16:52:02 89° WSW 16:55:12 10° NNW
IRS-P3 4.0 16:49:42 10° SSE 16:54:59 74° ENE 17:00:19 10° NNW
Meteor 1-25 Rocket 4.2 16:49:42 10° N 16:55:34 74° ENE 17:01:20 10° SSE
Lacrosse 4 Rocket 3.3 16:52:45 10° W 16:55:59 22° NW 16:59:05 11° NNE
Cosmos 1825 Rocket 3.5 16:52:22 10° N 16:56:42 59° ENE 17:00:57 10° SSE
Cosmos 2219 3.8 16:51:30 10° NNW 16:56:43 34° NE 16:59:37 22° E
ARIANE 5 R/B 2.6 16:51:42 10° SSE 16:56:46 80° WSW 17:01:55 10° NNW
Cosmos 990 Rocket 4.4 16:52:30 10° S 16:57:14 39° ESE 16:59:48 23° NE
Cosmos 2266 Rocket 3.9 16:52:50 10° N 16:59:03 90° NE 17:05:08 10° S
Cosmos 2098 Rocket 3.5 16:58:29 10° SSW 17:02:33 64° WNW 17:07:24 10° N
Meteor 1-5 Rocket 4.1 16:57:48 10° N 17:03:04 57° ENE 17:08:24 10° SSE
Cosmos 2151 3.4 17:00:09 10° NNW 17:04:16 62° W 17:08:22 10° S
Cosmos 1743 3.8 17:01:51 10° NNW 17:04:55 39° W 17:07:57 10° SSW
SPOT 1/Viking Rocket 3.5 17:01:34 10° SSE 17:06:42 64° ENE 17:11:52 10° N
Cosmos 1980 Rocket 3.1 17:02:52 10° SSE 17:07:28 26° ESE 17:08:01 26° E
Cosmos 1844 Rocket 4.1 17:06:59 10° N 17:10:59 20° NE 17:10:59 20° NE
SL-16 R/B 3.6 17:09:08 10° N 17:15:01 44° WNW 17:20:49 10° SW
Cosmos 2058 Rocket 4.4 17:12:22 10° SSE 17:14:42 24° SE 17:14:42 24° SE
Cosmos 2263 Rocket 2.2 17:12:47 10° NNW 17:18:25 60° NE 17:23:09 15° SE
NOSS 3-2 (C) 3.1 17:14:50 10° SW 17:19:56 81° SE 17:23:02 30° NE
NOSS 3-2 (A) 3.7 17:15:06 10° WSW 17:20:14 55° NW 17:24:05 22° NE
GEOS 3 Rocket 4.0 17:19:36 23° NNE 17:22:58 63° NW 17:28:16 10° WSW
CZ-4 R/B 4.2 17:19:38 10° SSE 17:23:35 88° W 17:27:34 10° NNW
MOS 1 Rocket 3.9 17:19:14 10° S 17:24:04 64° W 17:29:13 10° NNW
Cosmos 1076 Rocket 3.3 17:21:45 10° N 17:26:04 75° E 17:30:21 10° SSE
BREEZE M DEB (TANK) 3.5 17:24:05 10° SW 17:25:21 25° SSW 17:25:21 25° SSW
Cosmos 1933 3.3 17:24:51 10° SSW 17:28:40 72° WNW 17:30:45 26° N
Cosmos 2227 Rocket 2.4 17:25:31 10° NNW 17:31:10 74° WSW 17:36:47 10° SSE
Cosmos 1538 Rocket 3.9 17:26:51 10° NNW 17:32:08 69° ENE 17:36:28 16° SE
Cosmos 1606 Rocket 3.6 17:27:45 10° SSW 17:32:09 77° WNW 17:35:24 18° N
PSLV R/B 3.2 17:36:04 59° SE 17:36:40 72° ENE 17:40:43 10° N
Cosmos 2369 Rocket 4.5 17:34:14 10° NW 17:37:04 14° NNW 17:39:55 10° N
CZ-2D R/B 3.4 17:33:15 10° SSE 17:37:28 82° WSW 17:41:39 10° NNW
COSMO-SKYMED 1 2.9 17:39:14 44° SSE 17:39:14 44° SSE 17:42:19 10° S
NOSS 2-2 (D) 4.4 17:37:22 10° W 17:40:03 25° NNW 17:40:03 25° NNW
Meteor 2-2 Rocket 4.4 17:35:33 10° SSE 17:40:36 45° ESE 17:40:36 45° ESE
SL-19 R/B 4.1 17:35:46 10° SSE 17:41:07 80° ENE 17:46:49 10° NNW
Cosmos 1244 Rocket 4.4 17:35:03 10° N 17:41:19 62° ENE 17:47:28 10° SSE
Resurs 1-3 3.4 17:37:10 10° SSE 17:41:29 88° ENE 17:45:49 10° NNW
Cosmos 1503 Rocket 4.5 17:37:47 10° SW 17:42:57 59° WNW 17:46:10 23° NNE
BREEZE-M DEB (TANK) 4.0 17:40:20 10° W 17:43:59 73° S 17:48:33 30° ESE
Meteor 2-20 4.3 17:41:39 10° S 17:47:49 82° E 17:54:00 10° NNE
Cosmos 1697 Rocket 2.6 17:42:49 10° SSW 17:48:26 83° WNW 17:50:45 38° NNE
Lacrosse 5 rocket 2.6 17:47:20 10° WNW 17:49:58 28° NNW 17:49:58 28° NNW
Cosmos 1354 Rocket 4.2 17:45:56 10° SSW 17:51:11 70° WNW 17:53:34 33° NNE
BREEZE-M DEB (TANK) 4.1 17:49:22 10° WNW 17:53:12 81° NNE 17:57:03 38° E
Cosmos 1461 3.3 17:50:29 10° WSW 17:54:18 53° NW 17:54:18 53° NW
Spot 4 Rocket 4.2 17:50:11 10° S 17:55:16 70° WSW 18:00:23 10° NNW
IRAS Rocket 4.2 17:50:55 10° SSE 17:56:24 81° WSW 18:01:55 10° NNW
Cosmos 1726 Rocket 4.1 17:52:53 10° SSW 17:57:29 60° WNW 17:59:49 28° N
SL-08 R/B 4.4 17:53:18 10° N 17:59:37 70° ENE 18:05:56 10° SSE
Cosmos 1655 Rocket 4.4 17:54:09 10° NNW 18:00:18 62° W 18:06:24 10° S
SKYMED 2 4.0 17:59:36 44° NNW 18:00:46 61° WNW 18:05:02 10° SSW
Gbstr 26 Del rocket 3.9 18:00:04 10° SW 18:02:38 36° SW 18:02:38 36° SW
Meteor 2-10 4.3 18:02:20 10° NNW 18:07:39 72° W 18:13:07 10° S
Meteor 2-20 Rocket 4.3 18:03:41 10° S 18:09:57 85° E 18:12:30 38° NNE
CENTAUR R/B 3.9 18:04:06 10° WNW 18:09:59 33° N 18:12:27 27° NNE
YAOGAN 1 3.5 18:06:09 10° S 18:10:16 47° W 18:14:24 10° NNW
USA 281 4.2 18:17:15 30° NNE 18:17:15 30° NNE 18:21:19 10° NNW
Cosmos 2082 3.6 18:11:29 10° NNW 18:17:04 83° N 18:17:04 83° N
Meteor 1-26 Rocket 4.2 18:13:32 10° S 18:18:03 63° S 18:18:03 63° S
USA 238 DEB 3.4 18:13:58 10° SSW 18:19:57 72° SE 18:19:57 72° SE
USA 238 3.4 18:14:05 10° SSW 18:20:02 71° SE 18:20:02 71° SE
Resurs 01 Rocket 4.2 18:25:01 11° NNW 18:25:01 11° NNW 18:25:10 10° NNW
USA 215 3.1 18:22:49 67° NE 18:23:16 69° NNE 18:29:48 10° WNW
Aureole 1 Rocket 4.4 18:24:41 10° SSW 18:27:16 37° SW 18:27:16 37° SW
Cosmos 2219 3.7 18:35:33 10° NW 18:41:09 56° WSW 18:41:35 54° SW
Cosmos 1980 Rocket 2.9 18:45:27 10° SW 18:49:48 50° WSW 18:49:48 50° WSW
Cosmos 1844 Rocket 4.3 18:50:18 10° NNW 18:52:38 25° NNW 18:52:38 25° NNW
Cosmos 2263 Rocket 4.0 18:57:13 10° NW 19:01:58 28° WSW 19:04:58 18° SSW
